Location: Unspecified
(0.0000°N, 0.0000°E)
Time: 05:26:18
(UTC+00:00)

deb NNS O-4 - Visible Passes

Search period start: 17 September 2024 00:00
Search period end: 27 September 2024 00:00
Orbit: 946 x 1038 km, 89.9° (Epoch: 16 September)

Date Brightness Start Highest point End Pass type
(mag) Time Alt. Az. Time Alt. Az. Time Alt. Az.
17 Sep ? 19:36:47 15° NNE 19:36:47 15° NNE 19:37:46 10° NNE visible
17 Sep?21:21:44NW21:21:44NW21:10:47SWvisible
18 Sep ? 19:55:50 10° S 20:05:49 25° N 20:08:11 10° N visible
19 Sep ? 18:43:40 10° SE 18:48:59 17° ENE 18:51:34 10° NE visible
19 Sep ? 20:26:34 10° SSW 20:33:43 31° WNW 20:37:38 10° NNW visible
20 Sep ? 19:11:56 10° SSE 19:17:44 41° E 19:23:24 10° NNE visible
20 Sep ? 20:58:54 10° SW 21:02:10 15° W 21:05:24 10° WNW visible
21 Sep ? 19:41:35 10° S 19:47:49 86° W 19:53:54 10° N visible
22 Sep ? 18:29:39 10° SE 18:33:21 16° E 18:37:01 10° NE visible
22 Sep ? 20:12:14 10° SSW 20:17:51 37° W 20:23:23 10° NNW visible
23 Sep ? 18:57:45 10° SSE 19:03:26 39° E 19:09:00 10° NNE visible
23 Sep ? 20:44:23 10° SW 20:47:52 16° W 20:51:20 10° WNW visible
24 Sep ? 19:27:17 10° S 19:33:30 90° E 19:39:33 10° N visible
25 Sep ? 18:15:37 10° ESE 18:19:02 15° E 18:22:23 10° NE visible
25 Sep ? 19:57:51 10° SSW 20:03:31 39° W 20:09:06 10° NNW visible
26 Sep ? 18:43:30 10° SSE 18:49:05 36° E 18:54:33 10° NNE visible
26 Sep ? 20:29:50 10° SW 20:33:31 17° W 20:37:12 10° WNW visible
